UVT247 UWGG-UWOO

Flight info

Callsign UVT247
Flight time 1h 35m
Altitude 31000
Route N0420F310 OKSUD T778 MOF T750 PODUT M162 PIMAM
Aircraft CRJ2/M-J/L

Departure

Time 2026-05-08 15:01
Airport Nizhny Novgorod / Strigino International Airport (UWGG)

Arrival

Time 2026-05-08 16:36
Airport Orenburg Central Airport (UWOO)
Time Latitude Longitude Altitude Speed Heading
2026-05-08 14:45 56.22134 43.78954 264 ft 0 kts 102°
2026-05-08 14:56 56.22135 43.78942 264 ft 2 kts 108°
2026-05-08 14:56 56.22142 43.78915 264 ft 2 kts 123°
2026-05-08 14:57 56.22154 43.78895 264 ft 2 kts 156°
2026-05-08 14:57 56.22170 43.78890 264 ft 2 kts 185°
2026-05-08 14:57 56.22180 43.78893 264 ft 1 kts 193°
2026-05-08 14:57 56.22181 43.78894 264 ft 0 kts 193°
2026-05-08 14:58 56.22181 43.78893 264 ft 0 kts 193°
2026-05-08 14:58 56.22172 43.78890 264 ft 3 kts 193°
2026-05-08 14:58 56.22137 43.78876 264 ft 8 kts 192°
2026-05-08 14:58 56.22073 43.78829 264 ft 9 kts 246°
2026-05-08 14:59 56.22066 43.78693 264 ft 12 kts 228°
2026-05-08 14:59 56.21876 43.78602 264 ft 17 kts 193°
2026-05-08 14:59 56.21750 43.78550 264 ft 21 kts 192°
2026-05-08 15:00 56.21601 43.78495 264 ft 23 kts 191°
2026-05-08 15:00 56.21484 43.78397 264 ft 13 kts 266°
2026-05-08 15:00 56.21500 43.78227 265 ft 16 kts 279°
2026-05-08 15:00 56.21550 43.78068 266 ft 15 kts 347°
2026-05-08 15:01 56.21696 43.78106 266 ft 48 kts 12°
2026-05-08 15:01 56.22327 43.78337 266 ft 136 kts 11°
2026-05-08 15:01 56.23452 43.78778 546 ft 187 kts
2026-05-08 15:01 56.24859 43.79314 1278 ft 210 kts
2026-05-08 15:02 56.26216 43.79834 2696 ft 198 kts
2026-05-08 15:02 56.27607 43.80339 3641 ft 213 kts
2026-05-08 15:02 56.29086 43.80877 4560 ft 222 kts
2026-05-08 15:02 56.30630 43.81439 5464 ft 229 kts
2026-05-08 15:03 56.32217 43.82018 6412 ft 236 kts
2026-05-08 15:03 56.33840 43.82610 7324 ft 240 kts
2026-05-08 15:03 56.35499 43.83217 8231 ft 246 kts
2026-05-08 15:03 56.37172 43.83836 9123 ft 251 kts
2026-05-08 15:04 56.38800 43.85208 9972 ft 273 kts 37°
2026-05-08 15:04 56.39842 43.88183 10750 ft 289 kts 71°
2026-05-08 15:04 56.39915 43.91814 11560 ft 294 kts 105°
2026-05-08 15:04 56.39017 43.95025 12361 ft 290 kts 135°
2026-05-08 15:05 56.37813 43.98000 13132 ft 300 kts 116°
2026-05-08 15:05 56.37445 44.01716 13913 ft 305 kts 86°
2026-05-08 15:05 56.37667 44.05493 14631 ft 308 kts 81°
2026-05-08 15:05 56.37906 44.09367 15329 ft 313 kts 84°
2026-05-08 15:06 56.38016 44.13309 16025 ft 317 kts 88°
2026-05-08 15:06 56.38007 44.17323 16711 ft 321 kts 97°
2026-05-08 15:06 56.37287 44.21092 17372 ft 318 kts 129°
2026-05-08 15:06 56.35719 44.23761 18058 ft 306 kts 158°
2026-05-08 15:07 56.33827 44.25344 18688 ft 303 kts 166°
2026-05-08 15:07 56.31846 44.26726 19303 ft 305 kts 166°
2026-05-08 15:07 56.29859 44.28146 19906 ft 309 kts 164°
2026-05-08 15:07 56.27901 44.29716 20500 ft 313 kts 162°
2026-05-08 15:08 56.25915 44.31413 21089 ft 316 kts 161°
2026-05-08 15:08 56.24595 44.32527 21480 ft 317 kts 162°
2026-05-08 15:08 56.21920 44.34730 22235 ft 320 kts 162°
2026-05-08 15:08 56.19856 44.36429 22805 ft 323 kts 162°
2026-05-08 15:09 56.17836 44.38092 23354 ft 325 kts 162°
2026-05-08 15:09 56.15759 44.39800 23832 ft 328 kts 162°
2026-05-08 15:09 56.13665 44.41518 24277 ft 330 kts 162°
2026-05-08 15:09 56.11583 44.43226 24706 ft 333 kts 162°
2026-05-08 15:10 56.09481 44.44946 25136 ft 335 kts 162°
2026-05-08 15:10 56.07347 44.46689 25562 ft 337 kts 161°
2026-05-08 15:10 56.05168 44.48468 25694 ft 350 kts 161°
2026-05-08 15:10 56.02928 44.50298 26043 ft 355 kts 161°
2026-05-08 15:11 56.00698 44.52113 26453 ft 357 kts 161°
2026-05-08 15:11 55.98430 44.53960 26855 ft 359 kts 161°
2026-05-08 15:11 55.96139 44.55823 27247 ft 361 kts 161°
2026-05-08 15:11 55.93864 44.57667 27626 ft 364 kts 161°
2026-05-08 15:12 55.91544 44.59549 28008 ft 366 kts 161°
2026-05-08 15:12 55.89212 44.61438 28368 ft 368 kts 161°
2026-05-08 15:12 55.86893 44.63311 28730 ft 370 kts 161°
2026-05-08 15:12 55.84533 44.65218 29087 ft 372 kts 161°
2026-05-08 15:13 55.82159 44.67133 29432 ft 374 kts 161°
2026-05-08 15:13 55.79798 44.69034 29754 ft 376 kts 161°
2026-05-08 15:13 55.77413 44.70951 30074 ft 378 kts 161°
2026-05-08 15:13 55.74998 44.72889 30356 ft 380 kts 161°
2026-05-08 15:14 55.72574 44.74836 30635 ft 381 kts 161°
2026-05-08 15:14 55.70176 44.76755 30817 ft 386 kts 161°
2026-05-08 15:14 55.65178 44.80755 30937 ft 401 kts 160°
2026-05-08 15:15 55.59991 44.84912 30958 ft 418 kts 160°
2026-05-08 15:15 55.57341 44.87190 30958 ft 430 kts 152°
2026-05-08 15:15 55.54901 44.90321 30965 ft 442 kts 143°
2026-05-08 15:16 55.51107 44.96617 30968 ft 456 kts 138°
2026-05-08 15:16 55.46518 45.04531 30959 ft 461 kts 140°
2026-05-08 15:17 55.41813 45.12144 30946 ft 460 kts 140°
2026-05-08 15:17 55.37125 45.19756 30942 ft 458 kts 140°
2026-05-08 15:18 55.32461 45.27294 30936 ft 457 kts 140°
2026-05-08 15:18 55.27762 45.34860 30934 ft 456 kts 140°
2026-05-08 15:19 55.23106 45.42329 30936 ft 455 kts 140°
2026-05-08 15:19 55.18424 45.49823 30933 ft 454 kts 140°
2026-05-08 15:20 55.13771 45.57241 30932 ft 453 kts 140°
2026-05-08 15:20 55.09130 45.64609 30927 ft 453 kts 140°
2026-05-08 15:21 55.04450 45.72022 30926 ft 452 kts 140°
2026-05-08 15:21 54.99810 45.79348 30922 ft 451 kts 140°
2026-05-08 15:22 54.95170 45.86652 30920 ft 451 kts 140°
2026-05-08 15:22 54.90522 45.93936 30921 ft 450 kts 140°
2026-05-08 15:23 54.85848 46.01244 30918 ft 450 kts 140°
2026-05-08 15:23 54.81216 46.08472 30914 ft 449 kts 140°
2026-05-08 15:24 54.76476 46.15492 30910 ft 448 kts 143°
2026-05-08 15:24 54.71569 46.22107 30909 ft 448 kts 144°
2026-05-08 15:25 54.66674 46.28746 30906 ft 447 kts 143°
2026-05-08 15:25 54.61816 46.35420 30908 ft 447 kts 143°
2026-05-08 15:26 54.56939 46.42109 30908 ft 447 kts 143°
2026-05-08 15:26 54.52085 46.48744 30908 ft 446 kts 143°
2026-05-08 15:27 54.47201 46.55373 30904 ft 446 kts 143°
2026-05-08 15:27 54.42326 46.61982 30908 ft 446 kts 143°
2026-05-08 15:28 54.37449 46.68575 30905 ft 446 kts 143°
2026-05-08 15:28 54.32578 46.75130 30905 ft 446 kts 143°
2026-05-08 15:29 54.27701 46.81673 30906 ft 446 kts 142°
2026-05-08 15:29 54.25535 46.85385 30896 ft 446 kts 126°
2026-05-08 15:29 54.23868 46.89898 30907 ft 446 kts 119°
2026-05-08 15:30 54.21363 46.99571 30912 ft 445 kts 109°
2026-05-08 15:30 54.19278 47.09490 30906 ft 445 kts 110°
2026-05-08 15:31 54.17019 47.19301 30899 ft 445 kts 111°
2026-05-08 15:31 54.14729 47.29154 30894 ft 445 kts 111°
2026-05-08 15:32 54.12435 47.38969 30894 ft 445 kts 111°
2026-05-08 15:32 54.10141 47.48756 30891 ft 445 kts 111°
2026-05-08 15:33 54.07862 47.58429 30886 ft 445 kts 111°
2026-05-08 15:33 54.06600 47.63769 30888 ft 445 kts 111°
2026-05-08 15:34 54.04296 47.73487 30883 ft 444 kts 111°
2026-05-08 15:34 54.01971 47.83230 30880 ft 444 kts 111°
2026-05-08 15:35 53.99642 47.92963 30872 ft 444 kts 111°
2026-05-08 15:35 53.97308 48.02635 30874 ft 443 kts 111°
2026-05-08 15:36 53.94961 48.12304 30874 ft 443 kts 111°
2026-05-08 15:36 53.92625 48.21956 30872 ft 443 kts 111°
2026-05-08 15:37 53.90285 48.31636 30873 ft 442 kts 111°
2026-05-08 15:37 53.88367 48.39478 30870 ft 442 kts 111°
2026-05-08 15:38 53.86002 48.49101 30867 ft 441 kts 111°
2026-05-08 15:38 53.83634 48.58711 30863 ft 441 kts 111°
2026-05-08 15:39 53.81274 48.68236 30854 ft 440 kts 112°
2026-05-08 15:39 53.78893 48.77804 30854 ft 440 kts 112°
2026-05-08 15:40 53.76558 48.87317 30850 ft 439 kts 110°
2026-05-08 15:40 53.74590 48.97084 30851 ft 439 kts 106°
2026-05-08 15:41 53.72800 49.06971 30850 ft 438 kts 106°
2026-05-08 15:41 53.70960 49.16727 30853 ft 438 kts 107°
2026-05-08 15:42 53.69074 49.26542 30853 ft 438 kts 107°
2026-05-08 15:42 53.67192 49.36280 30851 ft 438 kts 107°
2026-05-08 15:43 53.65301 49.46008 30856 ft 438 kts 107°
2026-05-08 15:43 53.63395 49.55758 30857 ft 438 kts 107°
2026-05-08 15:44 53.61476 49.65533 30859 ft 438 kts 107°
2026-05-08 15:44 53.59562 49.75226 30859 ft 438 kts 107°
2026-05-08 15:45 53.57633 49.84965 30861 ft 438 kts 108°
2026-05-08 15:45 53.55704 49.94639 30860 ft 438 kts 108°
2026-05-08 15:46 53.53751 50.04381 30856 ft 438 kts 108°
2026-05-08 15:46 53.51806 50.14057 30856 ft 438 kts 108°
2026-05-08 15:47 53.49600 50.23618 30856 ft 439 kts 114°
2026-05-08 15:47 53.47005 50.32923 30856 ft 439 kts 114°
2026-05-08 15:48 53.43273 50.46925 30858 ft 439 kts 113°
2026-05-08 15:49 53.40801 50.56224 30856 ft 438 kts 113°
2026-05-08 15:49 53.38318 50.65543 30857 ft 438 kts 113°
2026-05-08 15:50 53.35816 50.74877 30858 ft 437 kts 113°
2026-05-08 15:50 53.33336 50.84093 30857 ft 436 kts 114°
2026-05-08 15:51 53.30826 50.93394 30857 ft 436 kts 114°
2026-05-08 15:51 53.28337 51.02574 30855 ft 436 kts 114°
2026-05-08 15:52 53.25820 51.11811 30858 ft 435 kts 114°
2026-05-08 15:52 53.23316 51.20979 30854 ft 435 kts 114°
2026-05-08 15:53 53.20805 51.30125 30855 ft 435 kts 114°
2026-05-08 15:53 53.18275 51.39299 30852 ft 435 kts 114°
2026-05-08 15:54 53.15748 51.48457 30857 ft 435 kts 114°
2026-05-08 15:54 53.13212 51.57579 30858 ft 435 kts 114°
2026-05-08 15:55 53.10672 51.66691 30857 ft 435 kts 114°
2026-05-08 15:55 53.06832 51.80396 30856 ft 434 kts 114°
2026-05-08 15:56 53.04285 51.89445 30858 ft 434 kts 114°
2026-05-08 15:56 53.01706 51.98569 30860 ft 434 kts 114°
2026-05-08 15:57 52.99147 52.07589 30854 ft 433 kts 114°
2026-05-08 15:57 52.96578 52.16593 30857 ft 433 kts 114°
2026-05-08 15:58 52.94002 52.25594 30858 ft 433 kts 114°
2026-05-08 15:58 52.91407 52.34622 30853 ft 432 kts 114°
2026-05-08 15:59 52.88809 52.43629 30856 ft 432 kts 114°
2026-05-08 15:59 52.86665 52.51038 30855 ft 432 kts 114°
2026-05-08 16:00 52.84075 52.59952 30859 ft 432 kts 114°
2026-05-08 16:00 52.81460 52.68918 30858 ft 431 kts 114°
2026-05-08 16:01 52.78857 52.77815 30862 ft 431 kts 115°
2026-05-08 16:01 52.76242 52.86719 30867 ft 431 kts 115°
2026-05-08 16:02 52.73630 52.95580 30865 ft 430 kts 115°
2026-05-08 16:02 52.70998 53.04466 30696 ft 433 kts 115°
2026-05-08 16:03 52.69679 53.08903 30278 ft 428 kts 114°
2026-05-08 16:03 52.68387 53.13242 29832 ft 423 kts 114°
2026-05-08 16:03 52.67094 53.17592 29318 ft 419 kts 114°
2026-05-08 16:03 52.65809 53.21879 28814 ft 416 kts 114°
2026-05-08 16:04 52.64555 53.26083 28334 ft 413 kts 114°
2026-05-08 16:04 52.63289 53.30313 27846 ft 410 kts 114°
2026-05-08 16:04 52.62028 53.34515 27375 ft 408 kts 114°
2026-05-08 16:04 52.60772 53.38689 26905 ft 406 kts 114°
2026-05-08 16:05 52.59520 53.42855 26450 ft 404 kts 113°
2026-05-08 16:05 52.58274 53.46990 25999 ft 403 kts 114°
2026-05-08 16:05 52.57028 53.51105 25555 ft 401 kts 114°
2026-05-08 16:05 52.55787 53.55206 25120 ft 400 kts 114°
2026-05-08 16:06 52.54562 53.59248 24691 ft 399 kts 114°
2026-05-08 16:06 52.53321 53.63332 24270 ft 398 kts 114°
2026-05-08 16:06 52.52079 53.67413 23852 ft 397 kts 114°
2026-05-08 16:06 52.50840 53.71480 23435 ft 396 kts 114°
2026-05-08 16:07 52.49618 53.75477 22947 ft 395 kts 114°
2026-05-08 16:07 52.48387 53.79505 22465 ft 395 kts 114°
2026-05-08 16:07 52.47156 53.83525 21990 ft 394 kts 114°
2026-05-08 16:07 52.45922 53.87548 21519 ft 394 kts 113°
2026-05-08 16:08 52.44689 53.91562 21056 ft 393 kts 113°
2026-05-08 16:08 52.43467 53.95527 20599 ft 393 kts 113°
2026-05-08 16:08 52.42234 53.99533 20157 ft 392 kts 113°
2026-05-08 16:08 52.41002 54.03524 19710 ft 392 kts 113°
2026-05-08 16:09 52.39766 54.07521 19277 ft 391 kts 113°
2026-05-08 16:09 52.38952 54.10152 18990 ft 391 kts 113°
2026-05-08 16:09 52.37319 54.15408 18430 ft 391 kts 113°
2026-05-08 16:09 52.36084 54.19384 17993 ft 391 kts 113°
2026-05-08 16:10 52.34850 54.23346 17504 ft 390 kts 113°
2026-05-08 16:10 52.33616 54.27304 17044 ft 389 kts 113°
2026-05-08 16:10 52.32399 54.31192 16563 ft 378 kts 113°
2026-05-08 16:10 52.31105 54.34884 16114 ft 371 kts 119°
2026-05-08 16:11 52.29659 54.38272 15692 ft 363 kts 123°
2026-05-08 16:11 52.28134 54.41505 15295 ft 354 kts 124°
2026-05-08 16:11 52.26637 54.44640 14895 ft 346 kts 124°
2026-05-08 16:11 52.25174 54.47723 14497 ft 339 kts 123°
2026-05-08 16:12 52.23767 54.50774 14108 ft 334 kts 123°
2026-05-08 16:12 52.22399 54.53756 13727 ft 329 kts 123°
2026-05-08 16:12 52.21025 54.56756 13304 ft 325 kts 123°
2026-05-08 16:12 52.19681 54.59678 12879 ft 321 kts 123°
2026-05-08 16:13 52.18358 54.62553 12458 ft 318 kts 123°
2026-05-08 16:13 52.17035 54.65436 12050 ft 315 kts 123°
2026-05-08 16:13 52.16164 54.67324 11783 ft 312 kts 122°
2026-05-08 16:13 52.14444 54.71054 11241 ft 308 kts 122°
2026-05-08 16:14 52.13590 54.72908 10973 ft 306 kts 122°
2026-05-08 16:14 52.11900 54.76577 10458 ft 302 kts 122°
2026-05-08 16:14 52.11064 54.78394 10202 ft 300 kts 122°
2026-05-08 16:14 52.09812 54.81117 9817 ft 298 kts 122°
2026-05-08 16:15 52.08566 54.83811 9402 ft 295 kts 122°
2026-05-08 16:15 52.07352 54.86435 8998 ft 292 kts 122°
2026-05-08 16:15 52.06136 54.89069 8572 ft 289 kts 122°
2026-05-08 16:15 52.04935 54.91678 8165 ft 286 kts 122°
2026-05-08 16:16 52.03767 54.94225 7770 ft 283 kts 122°
2026-05-08 16:16 52.02577 54.96755 7428 ft 278 kts 123°
2026-05-08 16:16 52.01393 54.99213 7147 ft 272 kts 124°
2026-05-08 16:16 52.00782 55.00473 7021 ft 270 kts 124°
2026-05-08 16:17 51.99604 55.02894 6777 ft 267 kts 124°
2026-05-08 16:17 51.98456 55.05252 6535 ft 264 kts 124°
2026-05-08 16:17 51.97318 55.07585 6293 ft 261 kts 124°
2026-05-08 16:17 51.96211 55.09864 6049 ft 258 kts 124°
2026-05-08 16:18 51.95115 55.12138 5797 ft 256 kts 124°
2026-05-08 16:18 51.94022 55.14413 5540 ft 253 kts 124°
2026-05-08 16:18 51.92961 55.16640 5315 ft 249 kts 124°
2026-05-08 16:18 51.91913 55.18854 5109 ft 245 kts 124°
2026-05-08 16:19 51.90884 55.21041 4904 ft 242 kts 124°
2026-05-08 16:19 51.89874 55.23195 4706 ft 238 kts 124°
2026-05-08 16:19 51.88878 55.25330 4530 ft 238 kts 124°
2026-05-08 16:19 51.87894 55.27455 4344 ft 239 kts 124°
2026-05-08 16:20 51.86902 55.29619 4162 ft 239 kts 124°
2026-05-08 16:20 51.85914 55.31785 3973 ft 241 kts 124°
2026-05-08 16:20 51.84914 55.33989 3803 ft 242 kts 124°
2026-05-08 16:20 51.83930 55.36172 3636 ft 242 kts 124°
2026-05-08 16:21 51.82934 55.38392 3457 ft 243 kts 124°
2026-05-08 16:21 51.81956 55.40581 3287 ft 243 kts 124°
2026-05-08 16:21 51.80964 55.42803 3129 ft 242 kts 124°
2026-05-08 16:21 51.79989 55.44998 3050 ft 236 kts 124°
2026-05-08 16:22 51.79235 55.47254 3001 ft 222 kts 101°
2026-05-08 16:22 51.79091 55.49626 2988 ft 208 kts 91°
2026-05-08 16:22 51.79072 55.51906 2987 ft 198 kts 90°
2026-05-08 16:22 51.79046 55.54111 2981 ft 194 kts 90°
2026-05-08 16:23 51.79136 55.56263 2964 ft 191 kts 70°
2026-05-08 16:23 51.79778 55.58069 2988 ft 186 kts 56°
2026-05-08 16:23 51.80493 55.59804 2990 ft 184 kts 56°
2026-05-08 16:23 51.81083 55.61621 2970 ft 183 kts 79°
2026-05-08 16:24 51.80855 55.63608 2961 ft 184 kts 121°
2026-05-08 16:24 51.79858 55.64852 2970 ft 186 kts 162°
2026-05-08 16:24 51.78571 55.64753 2991 ft 190 kts 203°
2026-05-08 16:24 51.77607 55.63377 3005 ft 191 kts 243°
2026-05-08 16:25 51.77381 55.61322 3014 ft 188 kts 283°
2026-05-08 16:25 51.77854 55.59375 3036 ft 188 kts 298°
2026-05-08 16:25 51.78453 55.57433 3036 ft 198 kts 300°
2026-05-08 16:25 51.79044 55.55372 3023 ft 207 kts 290°
2026-05-08 16:26 51.79442 55.53081 3017 ft 216 kts 282°
2026-05-08 16:26 51.79632 55.50655 3018 ft 220 kts 276°
2026-05-08 16:26 51.79709 55.48169 3010 ft 223 kts 274°
2026-05-08 16:26 51.80125 55.45796 3000 ft 221 kts 306°
2026-05-08 16:27 51.81276 55.44249 3007 ft 216 kts 341°
2026-05-08 16:27 51.82715 55.44014 3016 ft 210 kts
2026-05-08 16:27 51.84157 55.44314 3011 ft 207 kts 12°
2026-05-08 16:27 51.85419 55.45281 2968 ft 202 kts 47°
2026-05-08 16:28 51.86021 55.47289 2870 ft 202 kts 83°
2026-05-08 16:28 51.86096 55.49535 2771 ft 198 kts 89°
2026-05-08 16:28 51.86051 55.51742 2656 ft 194 kts 92°
2026-05-08 16:28 51.85944 55.53913 2534 ft 192 kts 94°
2026-05-08 16:29 51.85827 55.56030 2407 ft 189 kts 94°
2026-05-08 16:29 51.85707 55.58134 2293 ft 187 kts 95°
2026-05-08 16:29 51.85585 55.60213 2148 ft 184 kts 95°
2026-05-08 16:29 51.85466 55.62238 2053 ft 180 kts 94°
2026-05-08 16:30 51.85357 55.64238 2000 ft 173 kts 94°
2026-05-08 16:30 51.85259 55.66114 1980 ft 166 kts 94°
2026-05-08 16:30 51.85168 55.67982 1986 ft 166 kts 93°
2026-05-08 16:30 51.85077 55.69873 1996 ft 170 kts 93°
2026-05-08 16:31 51.84986 55.71801 2007 ft 173 kts 93°
2026-05-08 16:31 51.84859 55.73739 1999 ft 177 kts 103°
2026-05-08 16:31 51.84135 55.75342 1990 ft 184 kts 147°
2026-05-08 16:31 51.82880 55.75719 2007 ft 189 kts 190°
2026-05-08 16:32 51.81703 55.74808 2025 ft 192 kts 212°
2026-05-08 16:32 51.80609 55.73535 2030 ft 195 kts 220°
2026-05-08 16:32 51.79643 55.71967 2026 ft 198 kts 231°
2026-05-08 16:32 51.79053 55.69965 2026 ft 200 kts 262°
2026-05-08 16:33 51.78921 55.67741 2023 ft 202 kts 268°
2026-05-08 16:33 51.78913 55.65474 2061 ft 193 kts 275°
2026-05-08 16:33 51.78978 55.63578 2153 ft 151 kts 276°
2026-05-08 16:33 51.79042 55.62015 2106 ft 135 kts 277°
2026-05-08 16:34 51.79112 55.60482 1952 ft 139 kts 277°
2026-05-08 16:34 51.79182 55.58900 1796 ft 141 kts 276°
2026-05-08 16:34 51.79246 55.57338 1633 ft 140 kts 276°
2026-05-08 16:34 51.79310 55.55771 1448 ft 139 kts 276°
2026-05-08 16:35 51.79375 55.54222 1289 ft 136 kts 276°
2026-05-08 16:35 51.79435 55.52713 1094 ft 131 kts 276°
2026-05-08 16:35 51.79498 55.51318 897 ft 122 kts 276°
2026-05-08 16:35 51.79560 55.49943 718 ft 122 kts 275°
2026-05-08 16:36 51.79574 55.48577 558 ft 121 kts 271°
2026-05-08 16:36 51.79579 55.47242 395 ft 118 kts 271°
2026-05-08 16:36 51.79581 55.46134 381 ft 74 kts 270°
2026-05-08 16:36 51.79555 55.45735 380 ft 15 kts 213°
2026-05-08 16:37 51.79463 55.45720 381 ft 0 kts 180°
2026-05-08 16:37 51.79450 55.45720 381 ft 4 kts 180°
2026-05-08 16:37 51.79411 55.45721 380 ft 7 kts 180°
2026-05-08 16:37 51.79346 55.45720 380 ft 11 kts 180°
2026-05-08 16:38 51.79278 55.45788 379 ft 14 kts 112°
2026-05-08 16:38 51.79268 55.45960 379 ft 17 kts 92°
2026-05-08 16:38 51.79251 55.46044 378 ft 3 kts 167°
2026-05-08 16:38 51.79228 55.46044 378 ft 1 kts 181°